Wind_Speed
25 25 23 22 22 22 21 19 17 16 16 16 15 14 13 12 12 12 11 11 10 10 9 8 9 8 8 8 8 8 8 9 10 10 11 12 13 15 15 16 17 19 20 21
27 27 26 25 25 24 23 22 20 19 20 19 18 16 15 14 14 13 13 12 12 12 11 11 11 11 11 10 10 10 10 11 12 12 12 13 14 15 15 16 17 18 19 20
28 28 28 28 26 26 25 24 21 21 21 21 20 18 18 17 16 16 15 15 14 14 14 14 14 14 13 13 13 12 12 12 12 13 13 13 14 15 16 17 18 19 19 20
30 30 29 28 29 27 26 25 24 24 23 22 21 21 20 19 19 18 18 18 17 17 17 17 17 17 17 17 16 15 15 14 14 14 15 15 15 16 18 20 21 21 21 22
32 30 30 32 29 27 27 27 26 25 25 24 23 23 23 22 22 21 21 20 20 21 20 20 20 19 19 19 19 18 17 16 16 17 17 17 17 18 19 20 21 22 22 23
35 32 30 32 31 28 28 29 27 27 26 25 24 25 25 23 23 23 23 23 23 23 22 22 22 21 21 21 20 19 19 18 18 18 19 20 20 19 20 21 22 23 24 24
36 35 33 35 32 29 30 30 28 27 27 26 26 26 26 25 25 24 25 24 24 24 24 24 23 23 23 23 22 21 21 21 20 20 20 21 21 21 21 22 23 23 23 23
37 36 36 37 33 32 32 30 29 28 28 29 28 28 28 27 27 27 27 27 27 26 26 26 26 25 25 24 24 24 23 23 22 22 23 23 23 23 23 24 25 24 24 24
39 39 38 36 35 34 33 33 32 31 30 30 30 29 28 28 27 27 27 28 28 28 28 28 27 27 26 25 25 25 24 23 23 24 24 25 25 26 27 26 26 26 26 26
37 38 37 36 35 34 33 33 33 32 31 30 29 29 29 28 28 27 27 27 28 29 28 28 28 27 27 27 26 26 25 25 25 26 26 26 25 26 26 27 27 28 28 27
35 36 35 35 34 33 32 32 32 31 30 30 30 29 28 28 27 27 27 26 27 27 27 27 27 27 26 26 26 27 26 26 26 27 27 27 27 27 26 27 27 27 28 29
35 34 34 32 32 31 31 30 30 30 30 30 29 29 28 28 27 26 25 24 24 25 25 26 26 26 26 26 27 27 27 27 27 27 27 27 27 27 28 28 28 28 29 30
33 32 32 32 30 30 30 29 29 29 29 29 28 28 27 27 26 26 25 24 24 25 25 25 25 25 25 25 25 25 26 26 27 27 26 27 27 26 26 26 27 28 29 30
30 31 31 31 31 29 29 29 29 28 28 28 28 28 27 27 27 26 25 25 24 24 24 24 24 23 24 24 24 24 25 25 25 26 26 26 27 27 28 28 28 29 29 29
29 29 29 29 30 30 30 29 28 28 28 28 28 28 28 27 26 25 25 25 24 23 23 23 23 23 23 23 23 23 24 24 24 25 25 25 26 26 26 27 28 28 28 29
27 27 27 28 28 28 28 28 27 27 27 26 26 26 26 25 25 24 24 24 23 23 22 21 21 21 21 22 22 22 22 22 22 22 22 23 24 25 25 26 28 28 28 29
25 25 25 26 26 26 27 27 27 26 26 26 26 25 24 23 24 23 22 22 21 20 19 19 19 19 19 19 19 20 20 20 20 21 21 21 22 24 25 26 27 27 27 28
24 24 23 23 23 24 25 25 25 25 26 26 25 24 23 22 21 20 20 19 19 19 19 18 18 18 17 17 16 17 17 18 19 19 20 21 22 23 24 25 25 26 27 27
22 22 23 22 23 24 24 24 24 24 24 23 23 22 21 20 19 19 19 19 19 18 18 17 17 16 16 16 16 16 16 17 18 19 20 21 21 22 23 24 25 25 26 27
22 22 22 22 22 22 23 23 23 23 23 22 21 20 19 19 19 18 18 18 17 17 16 15 15 15 15 15 15 16 17 17 18 19 20 21 22 22 23 24 24 25 26 26
20 21 21 20 20 21 22 21 21 21 21 21 19 19 18 17 16 15 15 15 14 14 14 14 14 14 14 14 15 15 16 18 18 19 20 21 22 22 23 23 23 24 24 25
17 18 19 19 19 20 20 20 18 18 18 17 17 16 15 15 14 13 12 13 13 13 13 13 13 14 14 14 15 16 17 18 18 19 19 19 20 20 21 21 22 23 24 24
15 15 16 18 19 19 19 18 17 17 15 15 14 14 14 14 13 12 12 12 12 13 13 13 13 13 14 14 15 15 16 17 17 17 18 18 19 20 20 21 22 22 23 23
14 15 15 16 17 17 17 17 16 15 14 13 13 13 13 13 13 13 13 12 12 12 12 12 12 12 12 13 14 15 16 16 17 17 18 18 19 20 20 21 21 21 22 22
14 14 14 15 15 15 16 15 15 13 12 12 12 12 12 12 12 12 11 11 12 12 12 12 12 13 13 14 15 16 16 16 17 18 19 19 19 20 20 20 20 20 20 20
14 14 15 14 14 14 13 13 13 12 11 11 11 10 10 10 10 10 10 10 11 11 11 12 13 13 14 15 16 17 17 17 18 18 18 19 19 19 19 19 20 20 19 19
13 13 13 13 12 12 11 10 10 10 11 11 10 10 10 10 10 10 10 11 11 12 13 13 14 15 16 16 17 17 17 18 18 18 18 19 19 19 19 19 19 19 19 19
Wind_Direction
224 227 233 234 236 238 239 235 237 246 250 258 263 263 264 264 263 261 263 264 264 268 274 279 281 282 286 290 285 280 277 271 266 263 261 257 254 248 246 246 244 241 239 241
230 232 233 233 234 237 237 238 239 243 251 257 263 264 264 263 260 260 261 261 262 263 266 273 275 276 277 283 283 281 279 278 272 271 269 261 255 250 249 248 247 245 243 244
232 233 233 233 234 235 238 239 242 247 252 258 260 261 262 261 259 260 261 261 261 264 268 273 273 274 276 278 280 281 280 278 275 272 270 263 256 249 248 248 247 247 246 247
231 232 232 235 235 235 237 240 244 248 252 255 258 259 260 260 260 261 261 260 259 262 267 269 270 270 272 274 275 278 280 275 268 268 267 265 257 253 252 251 249 251 250 250
231 234 235 237 237 237 240 243 247 251 254 257 260 261 261 261 261 261 261 260 260 262 266 268 269 270 271 270 272 274 275 271 265 263 262 260 258 255 255 254 255 255 256 255
232 232 236 242 240 239 243 246 248 251 255 257 260 261 261 259 260 261 261 261 262 263 265 267 268 268 271 269 269 269 270 268 266 263 262 260 258 256 254 254 258 261 259 259
234 235 238 242 243 243 245 246 247 250 253 255 257 259 261 261 260 261 259 260 261 262 263 265 267 269 272 271 269 268 267 264 262 264 264 262 261 259 257 258 260 262 262 263
234 237 240 244 246 246 248 249 250 250 252 255 256 257 258 258 259 259 259 260 260 261 262 262 264 268 271 269 268 266 265 263 261 262 263 263 262 262 261 260 260 262 263 264
234 237 242 246 247 248 249 250 250 252 253 254 255 256 256 256 257 259 260 260 260 261 262 262 263 266 268 269 268 265 263 263 262 261 262 262 262 263 263 262 262 263 263 265
235 238 242 245 246 246 247 248 249 250 251 252 253 254 256 257 258 258 258 258 259 260 260 260 262 264 266 268 267 264 262 261 262 262 261 261 262 262 262 261 262 262 263 267
236 238 240 242 244 244 245 246 247 249 249 250 252 252 254 256 257 258 257 257 257 257 257 258 258 261 264 265 264 263 261 261 263 261 262 263 262 262 263 263 263 265 267 269
235 237 239 240 242 242 243 243 244 245 247 248 249 250 252 253 254 255 255 254 255 255 257 257 257 260 263 263 263 262 261 263 263 263 262 262 262 265 268 269 269 272 273 274
237 238 239 240 241 241 241 242 243 245 246 245 246 247 249 250 250 251 251 252 255 256 256 257 258 260 263 262 262 260 260 261 263 262 261 263 265 267 269 269 271 272 273 274
235 237 238 239 238 238 239 240 241 242 242 243 244 244 246 247 249 250 250 252 254 256 256 258 259 260 263 263 262 262 261 261 263 261 263 265 266 269 271 271 271 272 275 277
234 235 236 237 237 236 237 238 239 240 240 241 243 243 244 246 248 250 250 251 252 254 256 258 258 260 261 261 261 261 261 261 262 263 264 266 269 270 271 273 275 276 278 280
233 234 234 234 234 234 234 235 236 238 237 237 238 240 241 243 246 248 249 249 250 253 256 258 259 259 259 260 262 263 263 263 264 264 264 267 269 269 271 273 277 279 281 284
233 232 232 231 230 231 232 233 234 235 234 234 235 236 238 239 241 243 245 245 246 249 254 256 255 255 257 260 262 262 262 263 263 264 268 271 273 274 275 277 280 281 284 288
231 230 230 229 228 226 227 228 229 230 231 231 233 235 235 237 238 239 239 241 245 250 253 253 253 255 258 261 265 266 265 264 266 269 275 278 281 282 282 282 282 285 288 291
226 227 227 227 224 223 223 223 225 226 227 229 230 231 231 232 235 236 238 241 245 249 251 251 252 255 257 261 264 266 268 270 272 275 279 282 282 282 283 285 286 288 291 294
227 226 226 225 223 221 220 221 223 225 225 225 225 224 226 230 233 235 237 240 243 245 248 249 252 256 260 264 267 271 274 276 278 280 283 284 285 286 288 290 289 292 295 297
221 218 217 217 215 212 212 215 218 219 218 218 221 221 223 225 227 229 231 235 238 242 246 249 251 257 263 267 271 274 277 280 283 284 286 288 291 291 292 292 294 296 298 301
203 200 202 203 203 200 202 204 207 208 209 212 214 215 217 218 221 224 229 232 237 244 251 252 253 259 265 270 274 278 282 286 289 291 291 293 295 295 295 296 299 302 304 306
186 187 190 191 189 189 191 194 197 199 201 204 207 211 213 214 217 220 227 234 238 245 252 258 263 266 271 276 281 285 289 293 295 294 295 297 299 300 301 303 305 306 307 307
173 175 176 176 176 179 182 186 190 193 196 199 203 207 210 213 219 227 234 239 242 251 259 265 269 274 278 282 285 289 293 295 295 297 299 300 301 303 304 304 305 306 307 308
160 161 163 164 167 171 175 179 182 185 190 195 198 203 209 218 227 232 237 243 252 257 263 270 275 278 282 286 289 292 294 295 297 299 300 301 302 303 304 305 306 307 308 308
154 157 159 161 164 166 170 175 182 188 195 199 203 209 217 225 232 237 244 252 259 263 269 275 280 283 287 289 291 292 294 296 298 298 300 301 303 304 305 305 305 306 306 306
151 155 159 162 166 170 173 180 188 197 203 209 217 224 231 238 244 249 256 266 271 274 278 281 285 288 289 290 290 292 293 295 296 297 299 300 301 302 302 302 302 302 302 303
Height
5812 5814 5816 5819 5821 5824 5827 5830 5834 5835 5835 5835 5835 5835 5835 5835 5835 5835 5835 5835 5835 5834 5834 5834 5833 5833 5832 5831 5831 5830 5830 5829 5829 5829 5829 5829 5829 5830 5831 5832 5833 5834 5836 5837
5805 5807 5810 5813 5816 5819 5821 5824 5827 5829 5830 5830 5830 5830 5831 5831 5831 5831 5832 5832 5832 5831 5831 5831 5831 5830 5830 5829 5828 5828 5827 5827 5826 5826 5826 5826 5826 5826 5827 5828 5829 5830 5832 5833
5799 5801 5804 5807 5810 5813 5816 5818 5821 5823 5824 5824 5825 5825 5826 5826 5827 5827 5827 5828 5828 5828 5828 5827 5827 5827 5826 5826 5826 5825 5824 5824 5823 5823 5823 5823 5823 5823 5824 5824 5825 5826 5827 5828
5792 5795 5798 5803 5803 5806 5809 5812 5814 5816 5817 5818 5819 5820 5820 5821 5821 5822 5822 5823 5823 5823 5823 5823 5823 5823 5822 5822 5822 5822 5821 5820 5820 5820 5820 5819 5819 5819 5820 5820 5820 5821 5822 5823
5783 5787 5790 5793 5796 5800 5803 5805 5807 5809 5811 5812 5813 5813 5814 5815 5815 5816 5817 5817 5817 5818 5818 5818 5818 5818 5818 5818 5818 5818 5817 5817 5817 5816 5816 5816 5815 5815 5816 5816 5816 5817 5817 5818
5775 5780 5783 5786 5788 5792 5796 5797 5800 5801 5803 5805 5806 5807 5807 5808 5809 5809 5810 5810 5811 5811 5812 5812 5812 5812 5812 5812 5812 5812 5812 5812 5812 5812 5812 5811 5811 5811 5812 5812 5812 5812 5812 5812
5766 5770 5774 5775 5780 5785 5789 5790 5792 5793 5795 5797 5798 5799 5800 5801 5801 5802 5803 5804 5804 5805 5805 5806 5806 5806 5806 5806 5807 5807 5807 5807 5807 5806 5806 5806 5806 5806 5806 5807 5806 5806 5806 5806
5757 5762 5767 5767 5772 5776 5778 5781 5783 5785 5787 5788 5790 5791 5792 5793 5794 5795 5796 5796 5797 5798 5798 5799 5799 5799 5799 5799 5800 5800 5800 5800 5800 5801 5801 5801 5801 5801 5801 5801 5801 5800 5800 5800
5749 5753 5755 5759 5763 5766 5769 5772 5774 5776 5778 5780 5781 5782 5784 5785 5786 5787 5788 5789 5789 5790 5790 5791 5792 5792 5792 5793 5793 5793 5794 5794 5794 5794 5794 5794 5794 5794 5794 5794 5794 5794 5794 5794
5739 5743 5747 5750 5753 5756 5759 5762 5765 5767 5769 5771 5772 5774 5776 5777 5778 5779 5780 5781 5781 5782 5783 5783 5784 5785 5785 5785 5786 5786 5787 5787 5787 5787 5787 5787 5787 5787 5787 5787 5787 5787 5787 5787
5730 5734 5737 5740 5744 5747 5750 5753 5756 5758 5760 5762 5764 5766 5768 5769 5770 5771 5772 5773 5773 5774 5775 5776 5777 5777 5778 5778 5778 5779 5779 5780 5780 5780 5780 5780 5780 5780 5780 5780 5780 5780 5780 5779
5721 5725 5729 5732 5735 5738 5741 5744 5747 5749 5752 5754 5756 5758 5760 5761 5762 5764 5765 5766 5767 5767 5768 5769 5769 5770 5771 5771 5771 5771 5772 5772 5773 5773 5773 5773 5773 5773 5772 5772 5772 5772 5772 5771
5712 5716 5720 5723 5726 5729 5732 5736 5738 5741 5744 5746 5748 5750 5752 5753 5755 5756 5758 5759 5760 5761 5761 5762 5762 5763 5763 5764 5764 5764 5765 5765 5765 5765 5766 5766 5766 5765 5765 5765 5764 5764 5764 5763
5704 5708 5711 5714 5718 5721 5724 5727 5730 5733 5735 5738 5740 5742 5744 5746 5748 5749 5751 5752 5753 5754 5754 5755 5756 5756 5756 5757 5757 5758 5758 5758 5759 5759 5759 5759 5759 5758 5758 5758 5757 5757 5756 5755
5696 5700 5703 5706 5709 5713 5716 5719 5722 5725 5728 5730 5733 5735 5737 5739 5741 5743 5744 5745 5746 5747 5748 5749 5749 5750 5750 5750 5751 5751 5751 5752 5752 5752 5752 5752 5751 5751 5751 5750 5750 5749 5748 5746
5689 5692 5695 5699 5702 5705 5709 5712 5715 5718 5720 5723 5725 5728 5730 5732 5734 5736 5737 5738 5740 5741 5742 5743 5743 5743 5744 5744 5745 5745 5745 5745 5745 5745 5745 5745 5744 5744 5743 5743 5742 5741 5740 5738
5682 5686 5689 5692 5695 5698 5702 5705 5708 5711 5714 5716 5719 5721 5724 5726 5728 5729 5731 5733 5734 5735 5736 5737 5737 5738 5739 5739 5739 5739 5739 5739 5739 5739 5739 5738 5738 5737 5736 5735 5734 5733 5732 5730
5675 5679 5682 5685 5688 5692 5695 5698 5701 5704 5707 5710 5713 5715 5718 5720 5722 5724 5725 5727 5729 5730 5731 5732 5732 5733 5733 5734 5734 5734 5734 5733 5733 5733 5733 5732 5731 5730 5729 5728 5726 5725 5723 5721
5669 5673 5676 5679 5682 5686 5689 5692 5695 5698 5701 5704 5707 5710 5712 5715 5717 5719 5720 5722 5724 5725 5726 5726 5727 5728 5728 5729 5729 5729 5729 5728 5728 5727 5727 5726 5724 5723 5722 5721 5719 5717 5715 5713
5664 5667 5670 5673 5677 5680 5684 5687 5690 5693 5696 5699 5703 5705 5708 5710 5712 5714 5716 5717 5719 5720 5721 5722 5723 5723 5723 5723 5724 5724 5723 5723 5722 5722 5721 5720 5718 5717 5715 5713 5712 5710 5708 5705
5658 5662 5665 5668 5672 5676 5679 5683 5686 5689 5692 5696 5699 5701 5704 5706 5708 5709 5711 5713 5714 5715 5716 5717 5718 5718 5718 5719 5718 5718 5718 5717 5716 5716 5714 5713 5712 5710 5708 5706 5704 5702 5700 5697
5654 5658 5661 5665 5668 5672 5676 5680 5683 5687 5690 5693 5695 5698 5700 5702 5704 5706 5708 5709 5711 5712 5712 5713 5714 5714 5714 5714 5714 5713 5712 5711 5710 5709 5708 5707 5705 5703 5701 5700 5697 5695 5693 5690
5652 5656 5659 5663 5667 5670 5674 5678 5681 5684 5687 5690 5693 5695 5697 5700 5702 5703 5705 5706 5707 5708 5709 5709 5709 5709 5709 5709 5708 5708 5707 5706 5705 5703 5702 5701 5699 5697 5695 5693 5691 5688 5686 5683
5652 5656 5659 5662 5666 5669 5673 5677 5680 5683 5686 5688 5691 5693 5695 5697 5699 5701 5702 5703 5704 5704 5705 5705 5705 5705 5705 5704 5703 5703 5702 5700 5699 5698 5696 5694 5693 5691 5689 5686 5684 5682 5679 5677
5654 5657 5660 5663 5666 5670 5673 5676 5679 5682 5685 5687 5689 5692 5693 5695 5697 5698 5698 5699 5700 5700 5701 5700 5700 5700 5700 5699 5698 5697 5696 5695 5694 5692 5690 5689 5687 5685 5682 5680 5678 5676 5673 5671
5656 5659 5662 5665 5668 5671 5674 5677 5679 5682 5684 5686 5688 5690 5691 5693 5694 5694 5695 5696 5696 5696 5696 5696 5696 5695 5695 5694 5693 5692 5690 5689 5688 5686 5684 5682 5680 5678 5676 5674 5672 5670 5667 5665
5659 5661 5664 5667 5669 5672 5675 5677 5679 5681 5683 5685 5687 5688 5689 5690 5691 5691 5692 5692 5692 5692 5692 5691 5691 5690 5689 5688 5687 5686 5685 5683 5682 5680 5678 5676 5674 5672 5670 5668 5666 5664 5661 5659